www.pogodaiklimat.ru
ПОГОДА в Оренсе
Время
(UTC), дата
16 8.12
17 8.12
18 8.12
19 8.12
20 8.12
21 8.12
22 8.12
23 8.12
00 9.12
01 9.12
02 9.12
03 9.12
04 9.12
05 9.12
06 9.12
07 9.12
08 9.12
09 9.12
10 9.12
11 9.12
12 9.12
13 9.12
14 9.12
15 9.12
16 9.12
17 9.12
18 9.12
19 9.12
20 9.12
21 9.12
22 9.12
23 9.12
00 10.12
01 10.12
02 10.12
03 10.12
04 10.12
05 10.12
06 10.12
07 10.12
08 10.12
09 10.12
10 10.12
11 10.12
12 10.12
13 10.12
14 10.12
15 10.12
16 10.12
17 10.12
18 10.12
19 10.12
20 10.12
21 10.12
22 10.12
23 10.12
00 11.12
01 11.12
02 11.12
03 11.12
04 11.12
05 11.12
06 11.12
07 11.12
08 11.12
09 11.12
10 11.12
11 11.12
12 11.12
13 11.12
14 11.12
15 11.12
16 11.12
17 11.12
18 11.12
19 11.12
20 11.12
21 11.12
22 11.12
23 11.12
00 12.12
01 12.12
02 12.12
03 12.12
04 12.12
05 12.12
06 12.12
07 12.12
08 12.12
09 12.12
10 12.12
11 12.12
12 12.12
13 12.12
14 12.12
15 12.12
16 12.12
17 12.12
18 12.12
19 12.12
20 12.12
21 12.12
22 12.12
23 12.12
00 13.12
01 13.12
02 13.12
03 13.12
04 13.12
05 13.12
06 13.12
07 13.12
08 13.12
09 13.12
10 13.12
11 13.12
12 13.12
13 13.12
14 13.12
15 13.12
16 13.12
17 13.12
18 13.12
19 13.12
20 13.12
21 13.12
22 13.12
23 13.12
00 14.12
01 14.12
02 14.12
03 14.12
04 14.12
05 14.12
06 14.12
07 14.12
08 14.12
09 14.12
10 14.12
11 14.12
12 14.12
13 14.12
14 14.12
15 14.12
16 14.12
17 14.12
18 14.12
19 14.12
20 14.12
21 14.12
22 14.12
23 14.12
00 15.12
01 15.12
02 15.12
03 15.12
04 15.12
05 15.12
06 15.12
07 15.12
08 15.12
09 15.12
10 15.12
11 15.12
12 15.12
13 15.12
14 15.12
15 15.12
Ветер
(напр.,м/с)
Видим. Явления Облачность Т
(С)
Тd
(С)
f
(%)
Тe
(С)
Тes
(С)
Комфортность P
(гПа)
Po
(гПа)
Тmin
(С)
Tmax
(С)
R
(мм)
R24
(мм)
S
(см)
ЮЗ 1 8000 м н/о +14.2 +12.8 91 +14 +14 1025.3 1007.7
СВ 1 3500 м н/о +13.1 +11.8 92 +13 +13 1026.1 1008.4
С 1 1400 м дымка н/о +11.6 +10.5 93 +12 +12 1027.0 1009.2 +14.2
ЮЗ 1 400 м н/о +10.7 +9.9 95 +11 +11 1028.1 1010.2
СВ 1 6000 м н/о +9.6 +8.8 95 +10 +10 1028.7 1010.7
Ю 1 2200 м н/о +8.3 +7.5 95 +8 +8 1029.6 1011.5
В 1 4800 м н/о +7.8 +7.2 96 +8 +8 1030.4 1012.2
штиль 0 4400 м н/о +7.1 +6.7 97 +6 +6 1030.8 1012.6
З 1 1400 м н/о +7.1 +6.8 98 +6 +6 1031.4 1013.2
З 1 3500 м н/о +6.9 +6.6 98 +7 +7 1031.5 1013.3
З 1 н/о н/о +6.9 +6.6 98 +7 +7 1031.3 1013.1
С 1 11 км н/о +6.6 +6.2 97 +5 +5 1032.0 1013.7
З 1 9000 м н/о +6.1 +5.4 95 +5 +5 1032.3 1014.0
СВ 1 11 км н/о +5.9 +5.3 96 +5 +5 1033.0 1014.7
Ю 1 12 км {туман} 10/10 200 м
[St]
+5.8 +5.1 95 +6 +6 1032.8 1014.5 +5.8 3.0
СВ 1 10 км н/о +5.8 +5.2 96 +4 +4 1033.4 1015.1
СВ 1 н/о н/о +5.4 +4.8 96 +4 +4 1033.9 1015.5
Ю 1 9000 м дымка 10/10 100 м
[St]
+5.6 +5.0 96 +5 +5 1034.3 1015.9
Ю 1 8000 м н/о +5.9 +5.3 96 +6 +6 1034.8 1016.4
ЮВ 1 9000 м н/о +7.0 +6.1 94 +6 +6 1034.8 1016.5
ЮЗ 1 12 км 9/4 200 м
[St As trans Cs]
+8.2 +6.2 87 +7 +9 1034.3 1016.1
З 1 12 км н/о +9.4 +6.8 84 +9 +9 1033.5 1015.4
З 1 11 км н/о +9.7 +7.1 84 +9 +9 1032.9 1014.8
ЮЗ 1 14 км н/о +9.9 +7.5 85 +10 +10 1032.8 1014.7
Ю 1 13 км н/о +10.8 +7.7 81 +10 +10 1032.6 1014.6
Ю 1 10 км н/о +9.6 +7.2 85 +10 +10 1033.2 1015.1
ЮВ 1 н/о н/о +7.7 +6.2 90 +8 +8 1033.3 1015.1 +10.8
ЮЗ 1 3000 м н/о +6.3 +5.1 92 +6 +6 1033.7 1015.4
ЮВ 1 4300 м н/о +5.4 +4.5 94 +5 +5 1034.0 1015.6
Ю 1 н/о н/о +5.4 +4.8 96 +5 +5 1033.9 1015.5
ЮВ 1 4500 м н/о +5.3 +4.7 96 +4 +4 1033.8 1015.4
Ю 1 900 м слаб. морось н/о +5.2 +4.8 97 +4 +4 1034.1 1015.7 0.0
ЮВ 2 3900 м в посл. час морось н/о +4.7 +4.3 97 +2 +2 1033.4 1015.0 0.0
ЮВ 1 н/о н/о +4.4 +4.0 97 +3 +3 1033.0 1014.6
ЮВ 1 2000 м н/о +4.0 +3.6 97 +2 +2 1032.8 1014.3
Ю 1 1700 м в посл. час морось н/о +3.8 +3.5 98 +2 +2 1032.4 1013.9 0.0
ЮВ 2 1500 м н/о +3.6 +3.3 98 +1 +1 1031.9 1013.4
ЮВ 1 1100 м н/о +3.5 +3.2 98 +2 +2 1031.5 1013.0
ЮВ 1 1300 м в посл. час туман 10/10 100 м
[St]
+3.8 +3.7 99 +2 +2 1031.4 1013.0 +3.5
Ю 2 2800 м в посл. час морось н/о +3.6 +3.3 98 +1 +1 1031.2 1012.7 0.0
ЮВ 1 2000 м в посл. час морось н/о +3.7 +3.6 99 +2 +2 1031.5 1013.0 0.0
ЮВ 1 7000 м дымка 10/10 100 м
[St]
+3.7 +3.4 98 +2 +2 1031.4 1012.9 0.0
Ю 1 7000 м н/о +4.4 +4.1 98 +4 +4 1030.9 1012.5
ЮЗ 1 9000 м н/о +5.3 +4.9 97 +4 +4 1030.6 1012.3
ЮЗ 1 9000 м дымка 10/8 200 м
[St Ac As]
+5.9 +4.7 92 +5 +5 1029.3 1011.0
Ю 1 10 км н/о +6.8 +5.1 89 +6 +6 1028.2 1010.0
Ю 1 11 км н/о +7.4 +5.4 87 +8 +8 1027.1 1009.0
Ю 1 11 км н/о +7.9 +5.7 86 +8 +8 1026.6 1008.5
ЮЗ 1 10 км н/о +9.0 +6.3 83 +8 +8 1026.2 1008.2
Ю 1 10 км н/о +8.4 +6.0 85 +9 +9 1025.7 1007.7
В 1 6000 м дымка н/о +7.9 +6.4 90 +7 +7 1025.7 1007.6 +9.3
ЮВ 1 н/о н/о +7.7 +6.5 92 +8 +8 1025.6 1007.5
штиль 0 6000 м н/о +7.9 +6.7 92 +7 +7 1025.6 1007.5
В 1 6000 м н/о +8.1 +6.9 92 +8 +8 1025.0 1007.0
СВ 1 7000 м н/о +8.4 +7.2 92 +9 +9 1024.5 1006.5
Ю 1 6000 м н/о +8.5 +7.4 93 +9 +9 1023.9 1005.9
З 1 н/о в посл. час морось н/о +8.6 +7.5 93 +9 +9 1023.4 1005.4 0.0
ЮВ 1 3100 м дождь н/о +8.6 +7.7 94 +9 +9 1022.9 1004.9 0.6
ЮЗ 1 2000 м сильн. дождь н/о +8.5 +7.9 96 +9 +9 1022.8 1004.8 4
С 2 2100 м сильн. дождь н/о +8.9 +8.3 96 +7 +7 1023.5 1005.5 7
В 1 8000 м слаб. морось н/о +9.1 +8.6 97 +8 +8 1024.7 1006.7 2
СВ 1 18 км в посл. час дождь н/о +9.1 +8.5 96 +9 +9 1025.0 1007.0 0.2
ЮЗ 1 20 км {дождь} 10/10 300 м
[Cu Sc]
+9.2 +8.0 92 +9 +9 1025.9 1007.9 +7.7 2 9.4
Ю 1 20 км н/о +8.8 +7.7 93 +9 +9 1026.9 1008.9
В 1 19 км н/о +7.4 +6.5 94 +7 +7 1027.9 1009.8
ЮВ 1 13 км 4/4 300 м
[Sc]
+6.9 +6.2 95 +7 +7 1028.8 1010.6
ЮВ 1 18 км н/о +8.5 +7.4 93 +9 +9 1029.3 1011.2
ЮВ 1 6000 м н/о +11.4 +7.1 75 +12 +12 1029.4 1011.5
ЮЗ 2 20 км 9/8 300 м
[Cu Sc Ac As]
+11.7 +4.9 63 +11 +12 1028.7 1010.8
З 2 20 км н/о +11.6 +5.0 64 +11 +11 1028.1 1010.2
ЮЗ 3 15 км слаб. морось с дождем н/о +11.6 +6.1 69 +10 +10 1027.7 1009.8 0.0
Ю 3 20 км н/о +11.6 +7.1 74 +10 +10 1027.4 1009.5 0.0
Ю 1 13 км дождь н/о +10.8 +7.5 80 +11 +11 1027.8 1009.9 0.2
ЮВ 1 19 км слаб. морось н/о +10.0 +7.6 85 +9 +9 1027.7 1009.7 0.2
ЮВ 1 17 км в посл. час морось {дождь} н/о +9.5 +7.4 87 +10 +10 1027.8 1009.8 +13.7 0.6
ЮВ 1 19 км в посл. час морось н/о +9.1 +7.5 90 +8 +8 1027.7 1009.7 0.0
ЮВ 1 18 км н/о +8.7 +7.3 91 +8 +8 1027.3 1009.3
ЮВ 1 20 км н/о +9.0 +7.1 88 +9 +9 1026.9 1008.9 0.0
Ю 1 10 км слаб. морось н/о +8.4 +7.3 93 +9 +9 1026.9 1008.8 0.0
ЮВ 1 8000 м слаб. морось н/о +8.1 +7.3 95 +8 +8 1026.5 1008.4 0.2
ЮЗ 1 9000 м слаб. морось {дождь} н/о +8.1 +7.5 96 +8 +8 1025.5 1007.5 0.4
З 1 6000 м слаб. дождь н/о +8.1 +7.7 97 +7 +7 1025.0 1007.0 0.0
ЮВ 1 20 км в посл. час дождь н/о +8.9 +8.3 96 +8 +8 1024.1 1006.1 0.2
Ю 2 20 км в посл. час дождь н/о +9.7 +8.3 91 +8 +8 1023.3 1005.4 0.4
ЮВ 2 17 км слаб. морось н/о +9.7 +8.3 91 +8 +8 1022.0 1004.1 0.2
ЮВ 2 6000 м слаб. морось с дождем н/о +9.7 +8.3 91 +8 +8 1021.4 1003.5 0.6
ЮВ 1 18 км слаб. дождь 10/10 300 м
[Frnb]
+9.9 +8.8 93 +10 +10 1020.7 1002.9 +8.0 3 4.0
Ю 1 19 км в посл. час дождь н/о +10.0 +8.4 90 +9 +9 1020.0 1002.2 1
Ю 2 4700 м дождь н/о +10.0 +8.9 93 +9 +9 1019.8 1002.0 2
Ю 2 14 км слаб. дождь 10/10 300 м
[Frnb]
+10.3 +9.2 93 +9 +9 1019.2 1001.4 5
Ю 2 8000 м дождь н/о +10.5 +9.1 91 +9 +9 1018.8 1001.0 0.6
Ю 3 4000 м дождь н/о +11.1 +9.7 91 +9 +9 1018.3 1000.6 2
Ю 2 6000 м дождь 10/10 300 м
[Frnb]
+11.7 +10.4 92 +10 +10 1016.6 998.9 4
ЮЗ 2 5000 м дождь н/о +12.1 +10.8 92 +11 +11 1015.4 997.8 1
ЮЗ 3 6000 м дождь н/о +12.7 +11.3 91 +11 +11 1014.3 996.8 2
Ю 2 6000 м дождь н/о +13.0 +11.9 93 +12 +12 1013.7 996.2 5
Ю 2 6000 м дождь н/о +13.3 +12.2 93 +13 +13 1014.0 996.5 0.8
ЮВ 2 17 км слаб. дождь н/о +13.3 +12.2 93 +13 +13 1014.1 996.6 1
Ю 2 7000 м дождь н/о +13.4 +12.5 94 +13 +13 1014.5 997.0 +13.4 2
Ю 2 20 км слаб. морось н/о +13.6 +12.5 93 +13 +13 1014.6 997.1 0.2
Ю 2 19 км слаб. дождь н/о +13.8 +12.5 92 +13 +13 1014.7 997.2 0.2
ЮВ 1 12 км слаб. дождь н/о +13.7 +12.4 92 +14 +14 1015.0 997.5 0.6
ЮЗ 3 20 км в посл. час дождь н/о +14.2 +12.4 89 +13 +13 1015.3 997.8 0.0
Ю 2 20 км н/о +14.3 +12.2 87 +14 +14 1015.8 998.3
Ю 3 20 км дымка н/о +14.4 +12.1 86 +14 +14 1015.9 998.4 0.0
З 3 13 км слаб. морось н/о +14.4 +12.1 86 +14 +14 1016.0 998.5 0.0
ЮЗ 1 20 км в посл. час морось н/о +14.0 +11.5 85 +14 +14 1015.6 998.1 0.0
Ю 2 20 км слаб. морось н/о +13.7 +11.6 87 +13 +13 1016.3 998.8 0.0
ЮЗ 2 20 км в посл. час морось н/о +13.5 +11.2 86 +13 +13 1016.4 998.9 0.0
ЮЗ 2 20 км слаб. морось н/о +13.5 +11.4 87 +13 +13 1016.5 999.0 0.0
Ю 1 12 км слаб. морось 10/10 300 м
[Frnb]
+13.5 +11.7 89 +14 +14 1016.9 999.4 +13.4 0.0 16.8
ЮЗ 1 20 км н/о +13.8 +11.5 86 +14 +14 1017.1 999.6
ЮЗ 1 20 км в посл. час морось н/о +13.9 +11.8 87 +15 +15 1017.9 1000.4 0.0
Ю 1 20 км {морось} 9/8 300 м
[Frnb Ac trans Ci sp]
+14.0 +12.0 88 +15 +15 1018.1 1000.6 0.0
ЮВ 1 20 км н/о +14.5 +12.0 85 +15 +15 1018.5 1001.0
ЮЗ 2 16 км слаб. морось н/о +15.0 +12.3 84 +15 +15 1018.9 1001.4 0.0
ЮЗ 3 18 км слаб. морось 10/10 300 м
[Frnb]
+14.7 +12.2 85 +14 +14 1018.4 1000.9 0.0
Ю 2 20 км в посл. час морось н/о +14.7 +12.0 84 +14 +14 1018.1 1000.6 0.0
Ю 2 20 км в посл. час морось н/о +14.8 +12.3 85 +15 +15 1017.9 1000.4 0.0
ЮЗ 2 20 км в посл. час морось н/о +14.7 +12.2 85 +15 +15 1017.9 1000.4 0.0
ЮЗ 1 20 км слаб. морось н/о +14.5 +12.2 86 +15 +15 1018.2 1000.7 0.0
ЮВ 3 20 км в посл. час морось н/о +13.6 +11.5 87 +13 +13 1018.7 1001.1 0.2
Ю 3 20 км в посл. час морось н/о +13.4 +10.0 80 +12 +12 1018.8 1001.2 +15.1 0.2
Ю 4 20 км н/о +13.3 +9.5 78 +12 +12 1018.9 1001.3
Ю 2 17 км в посл. час морось н/о +12.7 +10.1 84 +12 +12 1019.4 1001.8 0.0
Ю 2 20 км в посл. час морось н/о +12.6 +10.1 85 +12 +12 1019.0 1001.4 0.0
Ю 3 20 км н/о +12.7 +10.1 84 +11 +11 1018.7 1001.1
ЮВ 2 20 км в посл. час морось н/о +12.6 +10.3 86 +12 +12 1018.8 1001.2 0.0
Ю 1 20 км слаб. морось н/о +12.5 +10.2 86 +12 +12 1018.6 1001.0 0.0
ЮВ 2 20 км н/о +12.6 +10.1 85 +12 +12 1018.2 1000.6
Ю 2 19 км слаб. морось н/о +12.5 +10.2 86 +12 +12 1018.0 1000.4 0.0
Ю 2 19 км н/о +12.4 +10.1 86 +11 +11 1018.0 1000.4 0.0
ЮВ 2 17 км в посл. час морось н/о +11.8 +10.0 89 +11 +11 1017.9 1000.2 0.0
ЮВ 2 20 км н/о +11.7 +9.8 88 +10 +10 1017.5 999.8
ЮВ 2 20 км в посл. час морось н/о +11.5 +9.9 90 +11 +11 1017.4 999.7 +11.5 0.0 0.2
ЮВ 2 20 км в посл. час морось н/о +11.5 +10.2 92 +10 +10 1017.3 999.6 0.0
ЮВ 2 19 км в посл. час морось н/о +11.5 +10.6 94 +10 +10 1017.1 999.4 0.2
Ю 2 19 км н/о +11.8 +10.5 92 +11 +11 1017.4 999.7 0.2
Ю 1 20 км н/о +12.6 +10.1 85 +13 +13 1017.1 999.5
ЮВ 2 20 км н/о +13.3 +10.1 81 +13 +13 1017.1 999.5
ЮЗ 3 20 км дымка н/о +14.5 +10.9 79 +14 +14 1016.2 998.7
ЮЗ 4 20 км н/о +15.1 +10.1 72 +14 +14 1015.5 998.1
ЮЗ 4 20 км н/о +15.8 +9.9 68 +15 +15 1014.8 997.4
ЮЗ 4 20 км н/о +14.4 +9.6 73 +13 +13 1014.6 997.1
ЮЗ 1 20 км н/о +14.3 +9.9 75 +15 +15 1014.4 996.9
ЮЗ 2 20 км н/о +13.7 +9.9 78 +13 +13 1014.4 996.9 0.0
Ю 2 20 км в посл. час морось н/о +13.5 +9.7 78 +13 +13 1014.1 996.6 +15.8 0.0
ЮВ 3 20 км в посл. час морось н/о +13.1 +10.1 82 +12 +12 1013.9 996.4 0.0
ЮВ 1 20 км н/о +12.9 +9.9 82 +14 +14 1013.3 995.8
ЮВ 2 20 км н/о +13.8 +8.8 72 +14 +14 1013.0 995.5 0.0
Ю 2 20 км в посл. час морось н/о +13.6 +9.4 76 +13 +13 1012.6 995.1 0.0
Ю 1 20 км в посл. час морось н/о +12.8 +10.0 83 +13 +13 1012.3 994.8 0.0
ЮЗ 1 20 км дымка н/о +12.1 +10.0 87 +12 +12 1011.7 994.2 0.0
З 1 20 км в посл. час морось н/о +11.8 +10.2 90 +12 +12 1011.1 993.5 0.0
З 1 20 км н/о +11.2 +9.9 92 +11 +11 1010.3 992.7
З 1 20 км н/о +11.1 +10.0 93 +12 +12 1010.1 992.5 0.0
Ю 2 20 км слаб. морось н/о +12.1 +9.5 84 +11 +11 1009.1 991.6 0.0
Ю 1 н/о дождь н/о +12.2 +10.8 91 +13 +13 1008.9 991.4 2
СЗ 1 7000 м дождь н/о +12.0 +10.9 93 +12 +12 1008.1 990.6 +11.0 4 3.8
ЮВ 1 3100 м дождь н/о +11.6 +11.1 97 +12 +12 1008.1 990.6 3
ЮВ 2 18 км слаб. морось н/о +11.7 +11.1 96 +11 +11 1008.5 991.0 3
Ю 1 4500 м дождь н/о +11.5 +10.1 91 +11 +11 1009.7 992.2 7
ЮВ 2 15 км слаб. морось н/о +11.0 +10.1 94 +10 +10 1010.1 992.5 0.4
В 1 12 км слаб. морось н/о +10.9 +9.8 93 +10 +10 1009.7 992.1 0.2
З 1 6000 м дождь н/о +11.1 +10.2 94 +11 +11 1009.3 991.7 1
СЗ 1 20 км в посл. час дождь н/о +11.2 +10.3 94 +12 +12 1008.4 990.9 0.6
С 1 7000 м слаб. морось с дождем н/о +11.4 +10.3 93 +12 +12 1007.9 990.4 0.2
Ю 1 16 км слаб. морось с дождем н/о +11.0 +9.3 89 +12 +12 1007.7 990.2 1
Местоположение метеостанции Оренсе (Испания): широта 42.33 долгота -7.87 высота над уровнем моря 128 м.
В архиве по умолчанию представлена погода в Оренсе за последнюю неделю. Архивные данные за месяц целиком и за предыдущие месяцы, начиная с января 2011 года, Вы можете получить, выбрав интересующий диапазон дат из раскрывающегося списка и нажав кнопку "Найти!".
*Определитесь, кто Вы:
Внимание! Время в таблицах - всемирное. Для получения местного времени необходимо прибавить поправку, которая равна 1 ч.
Смотрите также архив погоды в соседних городах и на ближайших метеорологических станциях:
Партнеры нашего сайта:      
Пояснения к столбцам:
  • Ветер - указаны скорость ветра в м/с - средняя за 10 мин, порывы в срок и между сроками (в фигурных скобках) и направление, откуда дует ветер: С - северный,
  • СВ - северо-восточный, В - восточный, ЮВ - юго-восточный, Ю - южный, ЮЗ - юго-западный, З - западный, СЗ - северо-западный.
  • Видимость - горизонтальная дальность видимости в метрах или километрах. При видимости от 1 до 10 км при отсутствии осадков обычно наблюдается дымка, при ухудшении видимости до 1 км и менее - туман. В сухую погоду видимость может ухудшаться дымом, пылью или мглою.
  • Явления - указаны атмосферные явления, наблюдавшиеся в срок или в последний час перед сроком; фигурными скобками обозначены явления, наблюдавшиеся между сроками (за 1-3 часа до срока); квадратными скобками обозначены град или гололедные отложения с указанием их диаметра в мм.
  • Облачность - указаны через наклонную черту общая и нижняя облачность в баллах и высота нижней границы облаков в метрах; квадратными скобками обозначены формы облаков: Ci - перистые, Cs - перисто-слоистые, Cc - перисто-кучевые, Ac - высококучевые, As - высокослоистые, Sc - слоисто-кучевые, Ns - слоисто-дождевые, Cu - кучевые, Cb - кучево-дождевые. Подробнее классификацию облаков см. в Атласе облаков (PDF).
  • T - Температура воздуха - температура, измеренная на высоте 2 м над землей.
  • Td - Температура точки росы - температура, при понижении до которой содержащийся в воздухе водяной пар достигнет насыщения.
  • f - Относительная влажность воздуха - влажноcть воздуха, измеренная на высоте 2 м над землей.
  • Te - Эффективная температура - температура, которую ощущает одетый по сезону человек в тени. Характеристика душности погоды. При расчете учитывается влияние влажности воздуха и скорости ветра на теплоощущения человека.
  • Tes - Эффективная температура на солнце - температура, которую ощущает человек, с поправкой на солнечный нагрев. Характеристика знойности погоды. Зависит от высоты солнца над горизонтом, облачности и скорости ветра. Ночью, в пасмурную погоду, а также при ветре 12 м/с и более поправка равна нулю.
  • P - Атмосферное давление - приведенное к уровню моря атмосферное давление.
  • Po - Атмосферное давление - измеренное на уровне метеостанции атмосферное давление.
  • Tmin - Минимальная температура - минимум температуры воздуха на высоте 2 м над землей.
  • Tmax - Максимальная температура - максимум температуры воздуха на высоте 2 м над землей.
  • R - Количество осадков - Количество выпавших осадков за период времени, мм. При наведении курсора мыши на число - период времени, за который выпало указанное количество осадков.
  • R24 - Количество осадков - Количество выпавших осадков за 24 часа, мм.
  • S - Снежный покров - Высота снежного покрова, см. При наведении курсора мыши на число - состояние снежного покрова и степень покрытия местности в баллах.